Location: Caltech
(34.1382°N, 118.1253°W)
Time: 16:55:11
(UTC-08:00)

RS-15 - Visible Passes

Search period start: 22 November 2014 00:00
Search period end: 02 December 2014 00:00
Orbit: 1898 x 2146 km, 64.8° (Epoch: 21 November)

Date Brightness Start Highest point End Pass type
(mag) Time Alt. Az. Time Alt. Az. Time Alt. Az.
22 Nov 9.8 01:33:33 15° SE 01:33:33 15° SE 01:35:02 10° SE visible
22 Nov 9.1 03:41:24 25° SSW 03:41:24 25° SSW 03:46:05 10° S visible
22 Nov 8.9 17:44:10 10° WSW 17:54:23 43° NW 18:04:39 10° NNE visible
22 Nov 9.8 20:06:16 10° NW 20:10:53 13° NNW 20:15:33 10° N visible
23 Nov 9.3 03:07:32 23° S 03:07:32 23° S 03:11:05 10° S visible
23 Nov 8.6 17:07:23 10° SW 17:18:05 56° NW 17:28:47 10° NNE visible
23 Nov 9.7 19:27:32 10° WNW 19:33:39 16° NNW 19:39:50 10° N visible
24 Nov 9.6 02:33:36 17° SSE 02:33:36 17° SSE 02:35:40 10° SSE visible
24 Nov 9.6 18:49:11 10° WNW 18:56:36 20° NNW 19:04:06 10° N visible
24 Nov 9.9 21:14:12 10° N 21:14:46 10° N 21:14:46 10° N visible
25 Nov 9.9 01:59:37 11° SSE 01:59:37 11° SSE 01:59:53 10° SSE visible
25 Nov 9.4 18:11:14 10° W 18:19:45 25° NW 18:28:21 10° NNE visible
25 Nov 9.8 20:36:56 10° N 20:38:12 10° N 20:39:28 10° N visible
26 Nov 9.2 17:33:40 10° WSW 17:43:05 32° NW 17:52:35 10° NNE visible
26 Nov 9.8 19:57:55 10° NNW 20:00:40 11° N 20:03:27 10° N visible
27 Nov 8.9 16:56:29 10° WSW 17:06:36 41° NW 17:16:47 10° NNE visible
27 Nov 9.7 19:18:51 10° NW 19:23:15 13° NNW 19:27:41 10° N visible
27 Nov 9.9 21:37:57 10° N 21:37:58 10° N 21:37:58 10° N visible
28 Nov 9.7 18:40:05 10° WNW 18:45:59 16° NNW 18:51:57 10° N visible
28 Nov 9.8 21:02:12 10° N 21:03:07 11° N 21:03:07 11° N visible
29 Nov 9.6 18:01:40 10° WNW 18:08:54 19° NNW 18:16:13 10° N visible
29 Nov 9.8 20:26:20 10° N 20:28:09 10° N 20:28:16 10° N visible
30 Nov 9.4 17:23:39 10° W 17:32:01 24° NW 17:40:29 10° NNE visible
30 Nov 9.7 19:49:25 10° N 19:50:35 10° N 19:51:46 10° N visible
01 Dec 9.7 19:10:31 10° NNW 19:13:03 11° N 19:15:36 10° N visible
01 Dec 9.9 21:25:47 10° N 21:26:20 11° N 21:26:20 11° N visible
